Current weather by "City, St" or "zip code"  
 

Current Conditions: Mc Gregor - Isedor Iverson Airport, MN

Fair


34.0 F

Last Updated on Sep 18 2020, 12:55 am CDT
Humidity: 93%
Wind Speed: N 0.0 mph
Barometer 30.38 in
Dewpoint: 32.0 F
Visibility: 10.00 mi
Precip: --
Heat Index: NA
Wind Chill: NA
Current conditions at:

Mc Gregor - Isedor Iverson Airport, MN (KHZX)

Lat: 46.61904 Lon: 93.31267

Local Radar Image active severe weather and emergency alerts image image weather storm and storm spotter reports image weather observation monitoring service image
Local
Radar
Active
Alerts
Storm Reports Obs
Monitoring

Sign-up For Email & Text Message Weather Alert Notification Services



Advertise Here

Observation History for Mc Gregor - Isedor Iverson Airport, MN


Time Wind
(mph)
Vis
(mi)
Weather Precip (in) Temperature (F) Relative
Humidity
Wind
Chill
(F)
Heat
Index
(F)
Pressure
Air Dwpt altimeter
(in)
sea level
(mb)
Rmks
12:55 am CDT N 0.0 10.00 Fair -- 34.0 32.0 93% NA NA 30.38 M
11:55 pm CDT N 0.0 10.00 Fair -- 36.0 32.0 87% NA NA 30.37 M
10:55 pm CDT N 0.0 10.00 Fair -- 37.0 35.6 93% NA NA 30.36 M
9:55 pm CDT N 0.0 10.00 Fair -- 43.0 37.4 81% NA NA 30.35 M
8:55 pm CDT N 3.5 10.00 Overcast -- 48.0 37.4 66% NA NA 30.33 M
7:55 pm CDT NW 3.5 10.00 Overcast -- 48.0 35.6 62% NA NA 30.31 M
6:55 pm CDT N 4.6 10.00 Fair -- 52.0 33.8 50% 51 NA 30.30 M
5:55 pm CDT N 6.9 10.00 Partly Cloudy -- 55.0 33.8 44% 53 NA 30.29 M
4:55 pm CDT NW 9.2 10.00 Fair -- 55.0 33.8 44% 52 NA 30.29 M
3:55 pm CDT N 8.1 10.00 Mostly Cloudy -- 55.0 33.8 44% 53 NA 30.29 M
2:55 pm CDT NW 10.4 10.00 Partly Cloudy -- 55.0 33.8 44% 52 NA 30.30 M
1:55 pm CDT N 3.5 10.00 Fair -- 54.0 33.8 47% NA NA 30.31 M
12:55 pm CDT NW 3.5 10.00 Mostly Cloudy -- 52.0 32.0 47% NA NA 30.33 M
11:55 am CDT N 3.5 10.00 Overcast -- 48.0 32.0 54% NA NA 30.33 M
10:55 am CDT N 0.0 10.00 Overcast -- 48.0 33.8 58% NA NA 30.34 M
9:55 am CDT N 0.0 10.00 Partly Cloudy -- 45.0 37.4 76% NA NA 30.33 M
8:55 am CDT N 0.0 10.00 Overcast -- 37.0 33.8 87% NA NA 30.33 M
7:55 am CDT N 0.0 4.00 Partly Cloudy -- 32.0 32.0 100% NA NA 30.30 M
6:55 am CDT N 0.0 10.00 Fair -- 30.0 28.4 93% NA NA 30.30 M
5:55 am CDT N 0.0 10.00 Fair -- 32.0 30.2 93% NA NA 30.28 M
4:55 am CDT N 0.0 10.00 Fair -- 32.0 32.0 100% NA NA 30.28 M
3:55 am CDT N 0.0 10.00 Fair -- 34.0 32.0 93% NA NA 30.27 M
2:55 am CDT N 0.0 10.00 Fair -- 36.0 33.8 93% NA NA 30.27 M
1:55 am CDT N 0.0 10.00 Fair -- 36.0 33.8 93% NA NA 30.26 M

Regional Weather Observation


Aitkin Municipal Airport - Steve Kurtz Field, MN (KAIT)

Fog/Mist
30.0 F

Grand Rapids, Grand Rapids/Itasca County Airport-Gordon Newstrom Field, MN (KGPZ)

Fair
32.0 F

Longville, Longville Municipal Airport, MN (KXVG)

Fair
34.0 F

Brainerd - Crow Wing County Airport, MN (KBRD)

Fog/Mist
37.0 F

Pine River Regional Airport, MN (KPWC)

Fair
43.0 F

Moose Lake Carlton County Airport, MN (KMZH)

Fair
32.0 F